sat.trackr.live / text

‹ back to catalog

SKYNET 5C

NORAD 33055 · 2008-030A

PAYLOAD ACTIVE UNKNOWN

§ Identity

Operator
Country
UK
Launch date
2008-06-12
Launch site
FRGUI
Launch vehicle
Mass (kg)
RCS (m²)
29.10

Purposes: comms

External: N2YO · Heavens-Above · Gunter

§ Orbital elements

Epoch: 2026-09-20T03:09:06.090336Z

Period
1,436.08 min
Inclination
4.0251°
Eccentricity
0.0004877
Mean motion
1.00272892 rev/d
Perigee alt
35,765.7 km
Apogee alt
35,806.8 km
Semi-major
42,164.4 km
B*
0.0000e+0
RAAN
75.8446°
Arg perigee
111.9924°
Mean anomaly
200.6992°
Rev number
6,690

§ Raw data

SKYNET 5C1 33055U 08030A   26263.13132049 -.00000142  00000+0  00000+0 0  99952 33055   4.0251  75.8446 0004877 111.9924 200.6992  1.00272892 66907

JSON: /api/v1/satellites/33055 · /tle

For live sub-satellite position, see the globe view (requires WebGL).

§ Visibility from observer

Set your observer location to see the next 7 days of passes ≥ 10°. The values pass through the URL so the page stays shareable.

No JS? Fill the form by hand. The geolocation button needs JavaScript.